Lapse_Rate
7.4 7.4 7.3 7.1 7.0 6.7 6.6 6.5 6.3 6.4 6.3 6.5 6.6 6.6 6.7 6.7 6.6 6.6 6.7 6.8 6.9 6.8 6.8 6.7 6.6 6.5 6.2 6.0 5.8 5.6 5.6 5.4 5.2 5.2 5.1 5.0 4.8 4.7 4.7 4.6 4.5 4.5 4.4
7.5 7.5 7.3 7.2 7.1 6.8 6.6 6.4 6.3 6.3 6.4 6.7 6.9 6.9 6.9 6.8 6.8 6.5 6.8 6.9 6.9 7.0 6.8 6.7 6.5 6.4 6.2 6.0 5.8 5.6 5.5 5.4 5.3 5.0 4.9 4.8 4.7 4.6 4.5 4.4 4.3 4.4 4.5
7.6 7.6 7.5 7.3 7.1 6.7 6.5 6.3 6.3 6.5 6.7 6.9 7.0 7.0 6.9 6.7 6.6 6.7 6.8 6.8 6.7 6.8 6.8 6.5 6.5 6.3 6.2 6.0 5.7 5.6 5.5 5.3 5.2 4.9 4.8 4.7 4.6 4.6 4.5 4.4 4.4 4.4 4.6
7.7 7.6 7.6 7.5 7.2 6.8 6.6 6.4 6.4 6.7 6.9 6.9 7.1 7.1 6.8 6.7 6.7 6.8 6.8 6.7 6.7 6.8 6.6 6.4 6.4 6.3 6.1 6.0 5.7 5.5 5.4 5.2 5.0 4.9 4.7 4.5 4.6 4.5 4.4 4.3 4.4 4.4 4.5
7.8 7.6 7.5 7.6 7.3 7.0 6.7 6.6 6.7 7.0 7.2 7.2 7.2 7.1 6.8 6.8 6.8 6.7 6.6 6.5 6.6 6.6 6.5 6.5 6.4 6.3 6.3 6.1 5.9 5.6 5.4 5.1 4.9 4.8 4.6 4.6 4.6 4.4 4.3 4.3 4.4 4.4 4.6
7.6 7.6 7.5 7.5 7.3 7.1 6.8 6.7 6.7 7.0 7.2 7.2 7.1 7.0 6.9 6.9 6.7 6.5 6.4 6.5 6.6 6.5 6.4 6.3 6.4 6.3 6.4 6.2 6.0 5.8 5.4 5.1 4.9 4.8 4.5 4.7 4.7 4.5 4.4 4.4 4.4 4.5 4.5
7.5 7.4 7.6 7.6 7.4 7.1 6.8 6.7 6.7 7.0 7.2 7.2 7.1 7.1 6.8 6.7 6.5 6.5 6.5 6.5 6.5 6.4 6.3 6.3 6.4 6.3 6.2 6.1 5.9 5.7 5.4 5.1 5.0 4.8 4.6 4.8 4.8 4.7 4.5 4.6 4.5 4.5 4.6
7.4 7.2 7.4 7.4 7.3 7.2 7.0 6.8 6.9 7.1 7.1 7.1 7.2 7.0 6.7 6.6 6.5 6.4 6.5 6.4 6.5 6.6 6.5 6.4 6.3 6.2 5.9 5.9 5.7 5.5 5.3 5.1 5.0 4.9 4.6 4.7 4.8 4.7 4.6 4.6 4.5 4.5 4.5
7.3 7.1 7.1 7.2 7.3 7.3 7.1 6.9 7.0 7.1 7.1 7.0 7.0 6.8 6.7 6.6 6.4 6.4 6.5 6.6 6.6 6.6 6.6 6.4 6.4 6.2 6.0 6.0 5.8 5.4 5.3 5.1 4.9 4.9 4.8 4.8 4.8 4.7 4.6 4.5 4.5 4.6 4.5
7.2 7.2 7.0 7.1 7.2 7.2 7.2 7.1 7.0 6.9 6.9 6.9 6.8 6.7 6.6 6.5 6.5 6.3 6.4 6.5 6.6 6.6 6.4 6.3 6.3 6.2 6.1 5.9 5.6 5.4 5.2 5.1 5.0 5.0 4.9 5.0 4.9 4.9 4.8 4.8 4.7 4.7 4.7
7.0 7.1 7.2 7.0 7.0 7.1 7.2 7.2 7.0 6.9 6.8 6.8 6.6 6.6 6.4 6.5 6.3 6.1 6.2 6.4 6.5 6.4 6.2 6.3 6.4 6.3 6.1 5.9 5.6 5.4 5.4 5.5 5.4 5.3 5.1 5.0 4.9 5.0 5.0 5.0 4.9 4.8 4.7
7.1 6.9 7.0 7.1 7.0 6.9 6.7 6.9 6.9 7.0 6.9 6.7 6.5 6.3 6.1 6.2 6.1 6.1 6.0 6.1 6.1 6.1 6.0 6.1 6.1 6.1 6.0 6.0 5.8 5.6 5.4 5.5 5.5 5.4 5.3 5.2 5.1 5.0 5.0 5.0 5.0 4.9 4.9
6.9 6.9 6.8 6.8 6.8 6.8 6.8 6.6 6.7 6.8 6.8 6.7 6.4 6.1 6.1 6.1 6.1 5.9 5.8 5.8 5.8 5.8 5.8 5.9 6.0 5.9 5.9 5.8 5.7 5.5 5.4 5.4 5.4 5.4 5.3 5.2 5.2 5.1 5.0 5.0 5.0 5.1 5.0
6.8 6.7 6.7 6.5 6.5 6.5 6.6 6.6 6.5 6.6 6.5 6.4 6.2 5.8 5.7 5.8 5.8 5.8 5.8 5.6 5.4 5.5 5.6 5.7 5.8 5.7 5.7 5.8 5.9 5.7 5.5 5.4 5.3 5.3 5.2 5.2 5.1 5.2 5.1 5.1 5.1 5.1 5.1
6.6 6.5 6.4 6.4 6.3 6.4 6.4 6.3 6.5 6.4 6.2 6.2 6.0 5.8 5.7 5.5 5.5 5.5 5.4 5.3 5.3 5.2 5.5 5.6 5.6 5.7 5.7 5.7 5.8 5.7 5.5 5.2 5.2 5.2 5.1 5.2 5.1 5.1 5.2 5.2 5.2 5.3 5.3
6.5 6.4 6.3 6.3 6.2 6.1 6.1 6.0 6.1 6.1 6.1 5.9 5.8 5.7 5.7 5.6 5.5 5.4 5.2 5.2 5.4 5.5 5.6 5.8 5.8 5.6 5.7 5.6 5.5 5.4 5.4 5.3 5.2 5.1 5.1 5.1 5.2 5.1 5.1 5.2 5.3 5.3 5.4
6.6 6.5 6.5 6.2 6.1 6.1 5.7 5.5 5.5 5.5 5.5 5.4 5.3 5.3 5.2 5.1 5.0 4.9 5.0 5.1 5.1 5.3 5.4 5.6 5.6 5.6 5.6 5.5 5.6 5.4 5.3 5.2 5.2 5.2 5.1 5.2 5.2 5.2 5.2 5.2 5.3 5.4 5.4
6.8 6.6 6.4 6.4 6.2 5.8 5.7 5.4 5.4 5.3 5.3 5.2 4.9 4.8 4.7 4.5 4.4 4.3 4.5 4.7 4.7 4.9 5.0 5.1 5.2 5.3 5.4 5.5 5.4 5.3 5.3 5.2 5.3 5.5 5.5 5.4 5.3 5.4 5.5 5.6 5.5 5.4 5.5
6.8 6.5 6.3 6.2 6.2 5.9 5.5 5.3 5.2 5.1 5.0 4.8 4.8 4.5 4.3 4.1 4.1 4.1 4.1 4.2 4.2 4.3 4.5 4.7 5.1 5.2 5.4 5.4 5.2 5.2 5.2 5.3 5.5 5.6 5.8 5.8 5.8 5.8 5.9 5.9 5.9 5.9 5.8
6.7 6.7 6.6 6.5 6.3 6.3 5.9 5.4 5.0 4.9 4.9 4.7 4.6 4.5 4.3 4.2 4.0 4.0 4.1 4.1 4.1 4.1 4.3 4.4 4.6 4.7 4.9 5.1 5.1 5.3 5.5 5.6 5.8 6.0 5.9 6.0 6.0 6.1 6.2 6.2 6.3 6.3 6.3
6.7 6.7 6.6 6.4 6.2 6.3 6.3 6.0 5.5 5.1 4.7 4.6 4.4 4.3 4.1 4.0 4.1 4.1 4.2 4.3 4.3 4.3 4.5 4.7 4.8 5.1 5.3 5.4 5.3 5.4 5.4 5.7 6.0 6.1 6.1 6.3 6.4 6.4 6.5 6.6 6.7 6.8 6.8
6.7 6.6 6.4 6.4 6.3 6.1 5.9 5.9 5.8 5.5 5.2 4.8 4.4 4.3 4.2 4.3 4.4 4.5 4.5 4.5 4.5 4.5 4.6 4.8 5.0 5.1 5.3 5.4 5.2 5.2 5.2 5.7 6.0 6.0 6.3 6.5 6.6 6.6 6.8 6.9 6.9 6.9 6.8
6.7 6.5 6.3 6.2 6.0 5.9 5.8 5.6 5.5 5.4 5.4 5.0 4.6 4.7 4.6 4.6 4.6 4.7 4.7 4.7 4.8 4.8 4.9 5.1 5.3 5.5 5.5 5.6 5.6 5.3 5.2 5.3 5.7 6.2 6.4 6.6 6.7 6.9 7.1 7.3 7.3 7.3 7.1
6.5 6.4 6.3 6.2 6.1 6.0 6.0 5.8 5.7 5.5 5.4 5.0 4.9 4.9 4.9 4.9 5.0 5.0 4.9 4.9 4.9 5.0 5.1 5.2 5.3 5.3 5.4 5.5 5.7 6.0 5.7 5.8 5.8 5.7 6.6 6.8 6.7 7.0 7.1 7.4 7.5 7.5 7.4
6.5 6.4 6.2 5.9 5.7 5.6 5.4 5.3 5.3 5.1 4.9 4.9 4.9 4.9 5.0 5.1 5.0 5.1 5.2 5.3 5.3 5.3 5.2 5.3 5.3 5.4 5.7 5.7 5.7 5.8 5.9 6.2 6.4 6.0 5.2 6.6 6.6 7.1 6.9 7.2 7.6 7.7 7.7
5.7 5.5 5.4 5.4 5.3 5.3 5.2 5.2 5.2 5.2 5.2 5.2 5.2 5.2 5.2 5.2 5.1 5.0 5.1 5.3 5.4 5.4 5.3 5.3 5.3 5.4 5.6 5.5 5.5 5.9 6.0 5.9 6.4 6.3 5.8 5.6 6.1 6.9 6.7 7.1 7.5 7.7 7.9
Wind_Speed
4 13 18 15 16 17 15 12 11 9 9 6 6 5 4 6 5 4 5 5 6 7 6 5 3 6 6 7 9 9 9 8 9 9 8 8 8 8 9 11 12 8 7
11 15 17 15 18 17 14 11 10 9 8 6 4 5 6 7 6 6 6 8 5 6 7 4 4 5 4 5 9 9 7 3 3 4 6 5 7 9 9 8 9 13 14
13 15 16 18 18 15 13 11 10 8 7 6 3 6 10 7 6 5 5 5 7 7 7 5 3 6 4 5 9 10 4 2 4 5 4 4 9 8 9 8 9 10 12
14 15 15 19 18 16 13 12 10 9 7 7 7 6 9 8 7 6 6 5 3 6 6 6 3 5 4 2 4 5 1 3 7 12 5 9 9 8 7 7 6 9 9
11 17 17 19 18 16 14 13 10 9 6 6 8 4 7 8 6 5 5 5 5 5 5 5 3 4 3 3 2 4 1 3 6 10 2 11 9 7 7 8 8 7 7
7 16 21 20 19 17 15 12 10 9 7 5 7 6 3 8 7 4 5 4 4 4 3 3 4 2 4 3 3 3 2 4 6 10 9 12 10 9 8 7 7 8 7
7 14 20 21 20 18 16 12 10 10 8 8 7 5 3 6 5 6 4 4 5 4 4 4 4 4 3 3 5 3 4 5 6 9 9 11 8 8 7 6 5 5 7
10 12 16 18 17 17 15 14 12 11 11 10 8 6 4 4 4 7 6 8 8 6 5 4 5 6 6 5 5 5 5 7 7 6 7 10 9 8 7 6 5 4 4
11 10 13 15 14 15 13 14 12 11 10 7 9 8 6 4 4 6 6 6 8 7 6 5 6 7 9 9 7 7 7 9 8 5 6 11 10 8 6 5 5 5 5
10 11 9 14 15 13 13 16 14 12 11 12 14 11 8 8 8 8 7 8 8 8 7 7 8 9 10 11 10 9 9 10 10 10 7 12 13 10 8 7 7 7 7
5 9 9 10 13 15 15 14 16 15 13 13 15 14 12 10 11 12 10 10 10 9 8 9 10 10 11 10 11 12 12 12 12 13 7 14 14 12 11 10 9 9 8
8 7 10 11 10 13 13 15 17 15 14 15 15 15 14 14 13 12 14 15 12 11 11 10 10 11 11 12 14 15 14 16 14 14 12 19 15 14 13 12 12 11 11
8 5 7 9 11 10 7 12 10 12 13 13 15 16 16 12 11 13 13 12 12 12 11 13 13 13 12 13 12 13 15 15 15 15 14 21 18 17 17 16 15 15 15
7 8 8 8 8 7 9 8 10 7 10 9 12 16 11 7 6 6 8 11 10 13 11 13 10 13 14 16 15 11 14 12 14 16 17 21 21 20 19 20 20 20 19
8 8 9 8 8 7 7 6 6 6 8 12 13 15 15 7 5 7 7 10 12 14 11 6 8 7 7 10 12 10 8 12 15 15 16 22 22 22 22 23 23 23 23
8 11 9 10 8 8 7 7 6 7 10 12 13 15 19 15 7 6 6 7 7 13 13 10 6 7 7 6 8 8 9 11 13 14 15 17 23 24 25 26 27 27 27
10 9 12 12 11 9 8 8 7 7 10 6 9 16 17 16 11 7 7 7 8 12 12 9 5 5 5 5 8 8 8 11 10 12 14 17 18 24 27 30 30 30 30
6 10 11 12 13 12 9 7 6 7 7 7 11 13 16 15 15 8 8 9 10 9 7 6 6 6 6 7 6 6 6 6 9 10 14 15 15 17 20 30 30 30 30
7 8 9 11 14 15 13 9 8 10 7 7 9 11 15 15 16 10 9 8 7 5 7 7 7 7 7 7 7 6 7 8 9 9 11 12 18 19 18 22 29 32 31
8 5 5 7 11 13 9 7 4 4 7 5 6 7 10 13 13 8 8 8 4 5 7 3 8 5 8 9 8 10 8 10 9 10 12 11 13 16 18 19 19 22 30
8 9 8 5 6 6 3 5 4 8 3 3 5 7 7 9 9 7 8 6 6 9 11 9 8 9 10 4 4 8 8 9 11 11 10 11 14 11 14 16 15 16 17
7 8 8 7 7 3 3 3 3 3 3 2 4 5 8 8 9 8 11 11 11 9 11 10 11 10 10 5 8 1 7 7 10 13 12 11 13 10 12 12 14 14 16
10 9 8 8 7 7 2 2 2 3 1 1 3 3 6 8 10 11 13 10 10 9 11 11 10 13 11 6 11 8 3 6 2 2 10 12 13 10 11 13 14 13 15
8 8 9 8 8 8 8 6 5 2 3 3 3 3 5 7 10 12 13 11 10 8 11 11 9 11 12 13 4 11 15 5 4 5 3 4 6 10 11 10 12 11 12
7 8 8 9 10 9 9 7 4 4 2 2 3 6 6 6 7 9 10 11 10 9 10 12 13 12 11 12 12 10 10 12 13 11 12 14 3 7 8 10 11 10 12
7 7 7 8 8 8 8 8 8 8 7 5 5 4 4 4 5 6 6 8 10 11 11 12 14 14 12 12 11 12 11 7 9 8 11 14 14 14 7 9 11 11 10
Wind_Direction
180 161 162 169 163 152 147 148 142 142 138 161 151 143 114 121 106 98 89 92 90 86 78 82 103 88 91 102 93 87 89 89 94 88 77 95 84 88 78 67 54 85 81
149 160 161 171 163 153 151 146 149 144 151 155 163 145 146 118 127 107 97 85 85 95 81 70 72 113 85 122 108 100 86 89 98 89 85 110 103 86 76 67 78 80 84
140 152 160 162 160 156 153 151 144 154 174 165 150 171 134 125 116 110 107 101 82 87 79 77 23 95 94 87 100 93 81 358 1 1 328 188 98 91 91 84 74 85 83
145 150 155 161 160 159 157 157 153 166 170 166 184 156 135 129 106 108 88 99 102 92 89 93 91 121 103 132 114 104 78 341 350 348 27 148 106 92 91 91 96 92 84
147 152 157 159 162 165 164 162 160 176 181 197 185 153 137 137 132 127 118 125 106 101 98 104 84 135 116 125 116 107 326 341 346 336 305 116 108 119 102 92 91 96 101
145 152 158 160 165 165 168 162 165 178 184 178 119 111 163 161 129 135 138 143 135 138 130 148 151 176 177 205 247 153 280 310 344 335 127 127 127 130 123 111 108 102 98
140 144 156 162 167 168 167 167 175 184 188 171 140 110 108 140 151 172 158 160 171 165 174 186 189 198 208 210 240 198 270 301 326 348 163 137 140 147 139 132 134 125 116
145 145 152 160 163 168 170 171 184 194 196 202 175 188 187 202 166 177 207 213 183 192 201 207 208 215 223 224 232 215 262 288 304 346 169 149 157 166 156 144 147 154 139
145 145 148 153 164 169 176 175 186 198 209 202 184 198 195 175 182 177 211 200 194 198 210 217 222 219 220 221 220 223 252 277 289 299 237 165 169 179 169 165 171 171 166
154 156 162 162 167 175 183 180 191 200 195 210 175 196 210 187 191 194 186 186 191 201 214 227 231 229 223 225 222 223 236 265 272 273 260 188 185 191 188 187 202 205 194
182 167 171 169 171 180 189 191 192 205 216 200 184 192 191 197 201 201 204 199 196 206 223 234 235 232 226 225 227 226 220 236 252 259 244 199 199 203 203 204 212 222 223
200 201 175 176 179 182 188 191 193 200 209 196 192 193 201 213 218 215 216 197 203 216 227 237 237 228 221 228 234 234 226 230 235 242 246 208 207 211 214 216 219 226 233
205 190 186 173 187 182 190 183 187 189 191 198 198 201 210 222 224 212 190 199 207 219 224 234 235 227 223 231 237 234 229 229 233 236 226 203 210 217 221 224 226 230 233
205 199 196 189 183 188 162 175 183 190 194 199 210 208 202 215 202 192 191 199 203 217 219 224 224 227 226 232 227 231 225 226 230 240 234 205 209 220 224 230 231 233 235
212 204 202 194 188 187 182 177 186 198 194 202 207 210 199 207 205 203 203 201 210 213 215 215 219 224 227 230 231 213 222 231 233 229 227 216 213 220 229 231 233 237 238
206 208 201 198 189 185 189 188 192 189 200 199 207 209 204 203 202 203 209 218 219 211 208 213 213 220 223 216 231 229 233 234 231 232 230 228 220 221 229 237 239 239 240
209 195 196 193 191 188 195 192 198 199 199 204 208 213 211 208 204 201 213 222 222 213 214 218 222 222 233 232 227 228 230 234 238 234 229 231 231 229 226 236 241 242 243
199 193 191 192 193 195 193 194 191 202 205 207 209 211 214 215 209 215 220 227 217 213 213 218 222 231 226 225 235 237 237 228 231 231 234 233 231 233 234 233 236 240 242
251 215 197 190 190 196 204 199 195 201 207 210 207 213 219 215 215 216 228 238 215 218 223 222 228 225 234 238 241 243 242 241 239 236 232 229 231 229 232 237 232 235 238
21 9 269 215 194 196 195 199 206 203 216 199 217 222 216 225 224 222 241 249 216 239 245 254 244 231 237 237 239 245 238 244 245 243 246 239 235 229 231 234 236 239 237
22 27 19 8 253 200 153 181 201 214 199 210 218 228 222 225 219 213 228 222 206 221 229 223 229 233 243 213 238 253 264 255 251 246 242 241 240 231 232 230 229 236 241
17 14 12 12 10 217 230 202 164 170 210 202 213 227 220 221 218 217 224 230 221 229 235 227 222 238 246 204 234 217 270 275 248 246 240 239 243 239 235 229 231 228 228
19 3 4 4 8 28 80 92 43 68 22 229 241 238 232 226 229 226 234 233 232 223 237 234 230 230 244 235 215 221 235 236 332 270 243 244 245 243 240 239 233 230 230
8 13 27 26 24 29 38 40 23 339 300 295 265 261 263 234 237 233 235 230 225 222 234 238 234 232 230 241 213 230 238 211 239 297 255 269 251 248 236 235 237 229 224
17 25 26 27 26 21 29 40 52 25 295 303 310 315 303 284 255 250 241 234 226 226 235 238 242 234 235 237 238 235 232 245 255 255 268 278 243 248 238 234 231 230 226
17 30 38 41 29 26 30 26 33 29 3 6 351 345 329 317 314 309 269 243 238 237 236 240 246 251 239 240 242 242 239 232 241 243 254 257 261 268 247 246 245 241 236